sat.trackr.live / text

‹ back to catalog

STARLINK-36590

NORAD 67577 · 2026-016S

PAYLOAD ACTIVE UNKNOWN

§ Identity

Operator
Country
US
Launch date
2026-01-25
Launch site
AFWTR
Launch vehicle
Mass (kg)
RCS (m²)

Purposes: comms

External: N2YO · Heavens-Above · Gunter

§ Orbital elements

Epoch: 2026-09-19T22:34:08.229792Z

Period
93.91 min
Inclination
97.2860°
Eccentricity
0.0000772
Mean motion
15.33458938 rev/d
Perigee alt
465.0 km
Apogee alt
466.0 km
Semi-major
6,843.6 km
B*
6.5337e-4
RAAN
321.5951°
Arg perigee
97.2643°
Mean anomaly
262.8687°
Rev number
3,663

§ Raw data

STARLINK-365901 67577U 26016S   26262.94037303  .00021086  00000+0  65337-3 0  99972 67577  97.2860 321.5951 0000772  97.2643 262.8687 15.33458938 36635

JSON: /api/v1/satellites/67577 · /tle

For live sub-satellite position, see the globe view (requires WebGL).

§ Visibility from observer

Set your observer location to see the next 7 days of passes ≥ 10°. The values pass through the URL so the page stays shareable.

No JS? Fill the form by hand. The geolocation button needs JavaScript.